Вернуться в каталог

QIANFAN-230

АктивенСвязьPO
NORAD 69859·PAYLOAD·🇨🇳 China

Запущен Jul 5, 2026 с Wenchang Space Launch Site

Loading…

Ближайшие Пролёты (ближайшие 24 часа)

TLE

СвежийSource: Space-Track

Эпоха: Sep 14, 2026, 20:50 UTC

1 69859U 26155M   26257.86872059 -.01804708  00000-0 -29744+1 0  9999
2 69859  89.0077  54.3077 0036321  29.8355 330.4857 13.51092928  9956

Отслеживайте QIANFAN-230 в реальном времени с AllMySat

Download on the App Store